Location: Unspecified
(0.0000°N, 0.0000°E)
Time: 16:19:11
(UTC+00:00)

Explorer 11/Cluster Stage 4 - Pass Details

Date: 19 November 2019
Orbit: 467 x 1259 km, 28.8° (Epoch: 12 December)

Event Time Altitude Azimuth Distance (km) Brightness Sun altitude
Exits shadow 03:27:23 74° 12° (NNE) 1,242 7.3 -32.3°
Maximum altitude 03:27:39 75° 31° (NNE) 1,235 7.4 -32.2°
Drops below altitude 10° 03:35:03 10° 115° (ESE) 2,915 10.4 -30.5°
Sets 03:37:37 0° 117° (ESE) 3,769 11.3 -29.9°
